Dundee, United Kingdom

8:59 PM BST on April 21, 2018 (GMT +0100)
Dundee

Weather History for EGPN - April, 2013

Change the Weather History Date:

Monday, April 22, 2013

  Actual Average Record
Temperature  
Mean Temperature 50 °F -  
Max Temperature 57 °F 55 °F 60 °F (2007)
Min Temperature 44 °F 45 °F 37 °F (2009)
Degree Days  
Heating Degree Days 14    
Moisture  
Dew Point 42 °F    
Average Humidity 76    
Maximum Humidity 87    
Minimum Humidity 51    
Precipitation  
Precipitation 0.00 in - - ()
Sea Level Pressure  
Sea Level Pressure 29.58 in    
Wind  
Wind Speed 23 mph ()    
Max Wind Speed 39 mph    
Max Gust Speed 46 mph    
Visibility 6.2 miles    
Events Rain    
Averages and records for this station are not official NWS values.
T = Trace of Precipitation, MM = Missing Value Source: Averaged Metar Reports

Daily Weather History Graph

Daily Weather History Graph

Search for Another Location

Airport or City:

Astronomy

Apr. 22, 2013 Rise Set
Actual Time 5:47 AM BST 8:34 PM BST
Civil Twilight 5:05 AM BST 9:17 PM BST
Nautical Twilight 4:09 AM BST 10:14 PM BST
Astronomical Twilight 2:54 AM BST 11:30 PM BST
Moon 4:32 PM BST (4/22) 4:15 AM BST (4/22)
Length of Visible Light 16h 12m
Length of Day
14h 47m
Waxing Gibbous, 86% of the Moon is Illuminated
Apr 22
Waxing Gibbous
Apr 25
Full
May 2
Last Quarter
May 10
New
May 18
First Quarter

Hourly Weather History & Observations

Time (BST) Temp. Windchill Dew Point Humidity Pressure Visibility Wind Dir Wind Speed Gust Speed Precip Events Conditions
6:20 AM 44.6 °F 36.4 °F 41.0 °F 87% 29.71 in 6.2 mi SW 20.7 mph - N/A   Partly Cloudy
6:50 AM 44.6 °F 36.4 °F 41.0 °F 87% 29.71 in 6.2 mi SW 20.7 mph - N/A   Partly Cloudy
7:20 AM 44.6 °F 36.6 °F 41.0 °F 87% 29.71 in 6.2 mi SW 19.6 mph - N/A   Partly Cloudy
7:50 AM 44.6 °F 36.6 °F 41.0 °F 87% 29.68 in 6.2 mi SW 19.6 mph - N/A   Scattered Clouds
8:20 AM 46.4 °F 38.7 °F 41.0 °F 81% 29.68 in 6.2 mi WSW 20.7 mph - N/A   Scattered Clouds
8:50 AM 46.4 °F 38.5 °F 41.0 °F 81% 29.68 in 6.2 mi WSW 21.9 mph - N/A   Scattered Clouds
9:20 AM 46.4 °F 38.7 °F 41.0 °F 81% 29.65 in 6.2 mi SW 20.7 mph - N/A   Scattered Clouds
9:50 AM 46.4 °F 38.1 °F 42.8 °F 87% 29.65 in 6.2 mi SW 24.2 mph - N/A   Scattered Clouds
10:20 AM 48.2 °F - 42.8 °F 82% 29.62 in 6.2 mi SW 20.7 mph - N/A   Mostly Cloudy
10:50 AM 51.8 °F - 46.4 °F 82% 29.59 in 6.2 mi SW 24.2 mph - N/A   Mostly Cloudy
11:20 AM 48.2 °F - 44.6 °F 87% 29.59 in 6.2 mi SW 24.2 mph - N/A Rain Light Rain
11:50 AM 48.2 °F - 44.6 °F 87% 29.56 in 6.2 mi WSW 26.5 mph - N/A   Mostly Cloudy
12:20 PM 50.0 °F - 44.6 °F 82% 29.53 in 6.2 mi WSW 29.9 mph - N/A   Mostly Cloudy
12:50 PM 50.0 °F - 46.4 °F 87% 29.53 in 6.2 mi WSW 29.9 mph - N/A   Mostly Cloudy
1:20 PM 51.8 °F - 46.4 °F 82% 29.50 in 6.2 mi WSW 33.4 mph - N/A   Mostly Cloudy
1:50 PM 51.8 °F - 46.4 °F 82% 29.50 in 6.2 mi WSW 33.4 mph - N/A   Mostly Cloudy
2:20 PM 53.6 °F - 46.4 °F 77% 29.50 in 6.2 mi WSW 34.5 mph - N/A   Mostly Cloudy
2:50 PM 53.6 °F - 44.6 °F 72% 29.50 in 6.2 mi WSW 38.0 mph - N/A   Scattered Clouds
3:20 PM 53.6 °F - 44.6 °F 72% 29.47 in 6.2 mi WSW 39.1 mph - N/A   Scattered Clouds
3:50 PM 53.6 °F - 42.8 °F 67% 29.50 in 6.2 mi WSW 36.8 mph - N/A   Scattered Clouds
4:20 PM 57.2 °F - 39.2 °F 51% 29.50 in 6.2 mi West 35.7 mph - N/A   Scattered Clouds
4:50 PM 55.4 °F - 41.0 °F 58% 29.50 in 6.2 mi WSW 38.0 mph - N/A   Scattered Clouds
5:20 PM 53.6 °F - 41.0 °F 62% 29.53 in 6.2 mi West 34.5 mph 46.0 mph N/A   Scattered Clouds
5:50 PM 53.6 °F - 39.2 °F 58% 29.53 in 6.2 mi West 29.9 mph 41.4 mph N/A   Mostly Cloudy
6:20 PM 53.6 °F - 37.4 °F 54% 29.53 in 6.2 mi West 25.3 mph - N/A   Mostly Cloudy
7:20 PM 51.8 °F - 41.0 °F 67% 29.56 in 6.2 mi West 27.6 mph - N/A   Mostly Cloudy
7:50 PM 51.8 °F - 41.0 °F 67% 29.59 in 6.2 mi West 23.0 mph - N/A   Scattered Clouds
8:20 PM 50.0 °F - 39.2 °F 66% 29.59 in 6.2 mi West 23.0 mph - N/A   Scattered Clouds
8:50 PM 50.0 °F - 41.0 °F 71% 29.59 in 6.2 mi WSW 21.9 mph - N/A Rain Light Rain Showers
9:20 PM 50.0 °F - 42.8 °F 76% 29.62 in 6.2 mi WSW 18.4 mph - N/A Rain Light Rain Showers
9:50 PM 48.2 °F - 42.8 °F 82% 29.62 in 6.2 mi WSW 16.1 mph - N/A   Partly Cloudy